カタログに戻る

FENGYUN 1C DEB

運用中PO
NORAD 30035·DEBRIS·🇨🇳 China

打ち上げ May 10, 1999 から Taiyuan Satellite Launch Center

Loading…

次のパス (今後24時間)

TLE

最新Source: Space-Track

元期: Sep 14, 2026, 18:45 UTC

1 30035U 99025NL  26257.78141091  .00000121  00000-0  54725-4 0  9990
2 30035  99.2812 198.9857 0114251 338.3833  50.7492 14.37094224 30899

AllMySatでFENGYUN 1C DEBをリアルタイム追跡

Download on the App Store